Regional Weather Roundup
Issued by NWS

Home | Current Version | Previous Version | Text Only | Print | Product List | Glossary Off
Versions: 1 2 3 4 5 6 7 8 9 10 11 12 13 14 15 16 17 18 19 20 21 22 23 24 25 26 27 28 29 30 31 32 33 34 35 36 37 38 39 40 41 42 43 44 45 46 47 48 49 50

000
ASUS43 KIND 280159
RWRIN

WEATHER ROUNDUP FOR INDIANA
NATIONAL WEATHER SERVICE INDIANAPOLIS IN
900 PM EST FRI FEB 27 2015

NOTE: "FAIR" INDICATES FEW OR NO CLOUDS BELOW 12,000 FEET WITH NO
SIGNIFICANT WEATHER AND/OR OBSTRUCTIONS TO VISIBILITY.

* - STATION DOES NOT REPORT WEATHER SUCH AS PRECIPITATION OR FOG.

+ - STATION NOT QUALITY CONTROLLED BY THE NATIONAL WEATHER SERVICE.
    USE DATA WITH CAUTION...ESPECIALLY DEWPOINT AND RELATIVE
    HUMIDITY OBSERVATIONS.

INZ001>003-010>013-019-020-280300-
NORTHWEST INDIANA

CITY           SKY/WX    TMP DP  RH WIND       PRES   REMARKS
GARY /AIRPORT/ CLEAR     10  -6  48 W8        30.66R WCI  -1
MONTICELLO +   PTCLDY     4  -3  72 CALM      30.67R
VALPARAISO     NOT AVBL

$$

LMZ046-743>745-280300-
SOUTHERN LAKE MICHIGAN

STATION/POSITION TIME  TEMP WIND        PRES
                       AIR  DIR/SP/G
                 (UTC) (F)  (DEG/KT/KT) (MB)
MICHIGAN CITY    0100   11  190/ 10/ 11   N/A

$$

INZ004-005-014>016-021>024-280300-
NORTH CENTRAL INDIANA

CITY           SKY/WX    TMP DP  RH WIND       PRES   REMARKS
ELKHART        CLEAR      9  -6  52 W5        30.64R WCI   0
GOSHEN         CLEAR      5  -4  66 S5        30.62R WCI  -4
SOUTH BEND     CLEAR      8  -4  58 SW7       30.63S WCI  -3

$$

INZ006>009-017-018-025>027-280300-
NORTHEAST INDIANA

CITY           SKY/WX    TMP DP  RH WIND       PRES   REMARKS
ANGOLA *+      CLEAR      1  -6  71 CALM      30.59S
FORT WAYNE     PTCLDY     7   0  73 CALM      30.64R

$$

INZ028-029-035-036-043>045-051>053-280300-
WEST CENTRAL INDIANA

CITY           SKY/WX    TMP DP  RH WIND       PRES   REMARKS
CRAWFORDSVL +  PTCLDY     1  -8  66 CALM      30.64F
GREENCASTLE +  CLOUDY    10  -4  52 NE3       30.64S
LAFAYETTE      PTCLDY     5  -4  66 CALM      30.67R
TERRE HAUTE    CLOUDY    11   0  61 N5        30.66S WCI   3

$$

INZ030>032-037>040-046>048-054>057-064-065-280300-
CENTRAL INDIANA

CITY           SKY/WX    TMP DP  RH WIND       PRES   REMARKS
COLUMBUS       CLEAR      5  -4  66 CALM      30.65R
FRANKFORT +    PTCLDY     4  -4  68 CALM      30.66S
GREENWOOD *+   MOCLDY    12  -6  44 N3        30.64R
INDIANAPOLIS   CLOUDY    13  -1  54 N3        30.63R
-EAGLE CREEK   MOCLDY    11  -1  58 CALM      30.64R
KOKOMO *+      PTCLDY     9  -2  61 W6        30.66R WCI  -1
MT COMFORT *+  MOCLDY     5  -9  51 CALM      30.64S
SHELBYVILLE    MOCLDY    13  -1  54 N5        30.64R WCI   5

$$

INZ033-034-041-042-049-050-058-059-280300-
EAST CENTRAL INDIANA

CITY           SKY/WX    TMP DP  RH WIND       PRES   REMARKS
MUNCIE         PTCLDY     8   0  69 SW3       30.64R

$$

INZ060-061-067>069-081>083-085>088-280300-
SOUTHWEST INDIANA

CITY           SKY/WX    TMP DP  RH WIND       PRES   REMARKS
EVANSVILLE     CLOUDY    21   7  54 N7        30.67R WCI  12
HUNTINGBURG *+ MOCLDY    18   5  57 N8        30.65F WCI   7

$$

INZ062-063-066-070>080-084-089>092-280300-
SOUTH CENTRAL AND SOUTHEAST INDIANA

CITY           SKY/WX    TMP DP  RH WIND       PRES   REMARKS
BLOOMINGTON    CLOUDY    11   0  61 N6        30.63S WCI   1
SEYMOUR +      MOCLDY    14   1  57 E3        30.66R

$$



USA.gov is the U.S. government's official web portal to all federal, state and local government web resources and services.